TimePST,TemperatureF,Dew PointF,Humidity,Sea Level PressureIn,VisibilityMPH,Wind Direction,Wind SpeedMPH,Gust SpeedMPH,PrecipitationIn,Events,Conditions,WindDirDegrees,DateUTC
12:53 AM,53.1,19.0,26,30.07,10.0,NNE,8.1,-,N/A,,Clear,30,2013-01-19 08:53:00
1:53 AM,45.0,21.0,39,30.09,10.0,ENE,4.6,-,N/A,,Clear,60,2013-01-19 09:53:00
2:53 AM,41.0,21.9,47,30.09,10.0,NE,4.6,-,N/A,,Clear,40,2013-01-19 10:53:00
3:53 AM,44.1,21.9,42,30.09,10.0,East,4.6,-,N/A,,Clear,80,2013-01-19 11:53:00
4:53 AM,36.0,24.1,62,30.11,10.0,ENE,4.6,-,N/A,,Clear,70,2013-01-19 12:53:00
5:53 AM,36.0,23.0,59,30.12,10.0,ENE,4.6,-,N/A,,Clear,70,2013-01-19 13:53:00
6:53 AM,36.0,23.0,59,30.14,10.0,East,3.5,-,N/A,,Clear,100,2013-01-19 14:53:00
7:53 AM,46.0,28.0,50,30.15,10.0,East,3.5,-,N/A,,Clear,100,2013-01-19 15:53:00
8:53 AM,64.9,21.9,19,30.16,10.0,ESE,3.5,-,N/A,,Clear,110,2013-01-19 16:53:00
9:53 AM,70.0,17.1,13,30.17,10.0,East,5.8,-,N/A,,Clear,90,2013-01-19 17:53:00
10:53 AM,75.0,16.0,11,30.14,10.0,East,13.8,-,N/A,,Clear,100,2013-01-19 18:53:00
11:53 AM,75.0,12.9,9,30.11,10.0,East,9.2,-,N/A,,Clear,80,2013-01-19 19:53:00
12:53 PM,75.9,12.9,9,30.08,10.0,East,12.7,-,N/A,,Clear,90,2013-01-19 20:53:00
1:53 PM,75.9,12.9,9,30.08,10.0,ENE,8.1,-,N/A,,Clear,60,2013-01-19 21:53:00
2:53 PM,75.0,14.0,10,30.07,10.0,ENE,9.2,-,N/A,,Clear,70,2013-01-19 22:53:00
3:53 PM,73.0,15.1,11,30.07,10.0,East,11.5,-,N/A,,Clear,80,2013-01-19 23:53:00
4:53 PM,66.9,14.0,13,30.09,10.0,East,11.5,-,N/A,,Clear,80,2013-01-20 00:53:00
5:53 PM,61.0,14.0,16,30.11,10.0,NNE,5.8,-,N/A,,Clear,20,2013-01-20 01:53:00
6:53 PM,60.1,12.9,16,30.13,10.0,NE,6.9,-,N/A,,Clear,50,2013-01-20 02:53:00
7:53 PM,61.0,12.9,15,30.13,10.0,ENE,11.5,-,N/A,,Clear,60,2013-01-20 03:53:00
8:53 PM,57.0,14.0,18,30.12,10.0,NNE,4.6,-,N/A,,Clear,30,2013-01-20 04:53:00
9:53 PM,54.0,15.1,22,30.12,10.0,NNE,8.1,-,N/A,,Clear,30,2013-01-20 05:53:00
10:53 PM,43.0,19.0,38,30.14,10.0,NE,3.5,-,N/A,,Clear,50,2013-01-20 06:53:00
11:53 PM,39.9,21.0,47,30.13,10.0,SE,3.5,-,N/A,,Clear,130,2013-01-20 07:53:00